This is the latest recevied weather packets stored in our database for station/object DG6YGE-6. If no packets are shown the sender has not sent any weather packets the latest 10 day(s).
| Time | Temp. | Humidity | Pressure | Rain* | Wind** | Luminosity | Snow |
|---|---|---|---|---|---|---|---|
| 1777122552 | 15.56° C | 51% | 1016.7 hPa | 0 mm | - | 664 W/m² | - |
| 1777121952 | 15.56° C | 52% | 1016.7 hPa | 0 mm | - | 672 W/m² | - |
| 1777121352 | 15° C | 53% | 1016.6 hPa | 0 mm | - | 685 W/m² | - |
| 1777120752 | 15° C | 53% | 1016.7 hPa | 0 mm | - | 696 W/m² | - |
| 1777120152 | 15° C | 55% | 1016.8 hPa | 0 mm | - | 706 W/m² | - |
| 1777119552 | 14.44° C | 55% | 1017 hPa | 0 mm | - | 707 W/m² | - |
| 1777118952 | 14.44° C | 56% | 1017.1 hPa | 0 mm | - | 715 W/m² | - |
| 1777118352 | 14.44° C | 58% | 1017 hPa | 0 mm | - | 722 W/m² | - |
| 1777117752 | 14.44° C | 60% | 1017.3 hPa | 0 mm | - | 724 W/m² | - |
| 1777117152 | 13.89° C | 58% | 1017.2 hPa | 0 mm | - | 723 W/m² | - |
| 1777116552 | 13.89° C | 60% | 1017.3 hPa | 0 mm | - | 726 W/m² | - |
| 1777115952 | 13.33° C | 63% | 1017.4 hPa | 0 mm | - | 720 W/m² | - |
| 1777115351 | 13.33° C | 63% | 1017.5 hPa | 0 mm | - | 722 W/m² | - |
| 1777114752 | 13.33° C | 63% | 1017.6 hPa | 0 mm | - | 720 W/m² | - |
| 1777114152 | 13.33° C | 65% | 1017.5 hPa | 0 mm | - | 714 W/m² | - |
| 1777113551 | 12.78° C | 65% | 1017.8 hPa | 0 mm | - | 710 W/m² | - |
| 1777112951 | 12.78° C | 65% | 1017.8 hPa | 0 mm | - | 700 W/m² | - |
| 1777112352 | 12.22° C | 66% | 1017.9 hPa | 0 mm | - | 694 W/m² | - |
| 1777111752 | 12.22° C | 67% | 1017.9 hPa | 0 mm | - | 682 W/m² | - |
| 1777111152 | 11.67° C | 69% | 1017.9 hPa | 0 mm | - | 672 W/m² | - |
| 1777110551 | 11.67° C | 68% | 1018 hPa | 0 mm | - | 662 W/m² | - |
| 1777109951 | 11.11° C | 69% | 1018.1 hPa | 0 mm | - | 645 W/m² | - |
| 1777109352 | 11.11° C | 70% | 1018.1 hPa | 0 mm | - | 639 W/m² | - |
| 1777108752 | 10.56° C | 72% | 1018.1 hPa | 0 mm | - | 620 W/m² | - |
| 1777108152 | 10° C | 72% | 1018.1 hPa | 0 mm | - | 599 W/m² | - |
* Rain latest hour (hover to see other rain measurements)
** Current wind speed in m/s (hover to see current wind gust speed)